TimeEDT,TemperatureF,Dew PointF,Humidity,Sea Level PressureIn,VisibilityMPH,Wind Direction,Wind SpeedMPH,Gust SpeedMPH,PrecipitationIn,Events,Conditions,WindDirDegrees,DateUTC
12:52 AM,36.0,32.0,86,30.37,10.0,Calm,Calm,-,N/A,,Clear,0,2013-05-01 04:52:00
1:52 AM,36.0,32.0,86,30.38,10.0,Calm,Calm,-,N/A,,Clear,0,2013-05-01 05:52:00
2:52 AM,32.0,30.0,92,30.40,10.0,Calm,Calm,-,N/A,,Clear,0,2013-05-01 06:52:00
3:52 AM,30.0,28.0,92,30.42,10.0,Calm,Calm,-,N/A,,Clear,0,2013-05-01 07:52:00
4:52 AM,30.9,28.0,89,30.44,10.0,Calm,Calm,-,N/A,,Clear,0,2013-05-01 08:52:00
5:52 AM,30.9,28.9,92,30.45,9.0,Calm,Calm,-,N/A,,Clear,0,2013-05-01 09:52:00
6:52 AM,37.0,32.0,82,30.46,10.0,Calm,Calm,-,N/A,,Clear,0,2013-05-01 10:52:00
7:52 AM,46.0,35.1,66,30.47,10.0,Calm,Calm,-,N/A,,Clear,0,2013-05-01 11:52:00
8:52 AM,55.0,34.0,45,30.47,10.0,Calm,Calm,-,N/A,,Clear,0,2013-05-01 12:52:00
9:52 AM,62.1,32.0,32,30.46,10.0,Calm,Calm,-,N/A,,Clear,0,2013-05-01 13:52:00
10:52 AM,71.1,28.9,21,30.45,10.0,NNW,3.5,-,N/A,,Clear,340,2013-05-01 14:52:00
11:52 AM,72.0,32.0,23,30.43,10.0,SW,4.6,-,N/A,,Clear,220,2013-05-01 15:52:00
12:52 PM,73.9,32.0,21,30.41,10.0,Variable,4.6,-,N/A,,Clear,0,2013-05-01 16:52:00
1:52 PM,73.9,33.1,22,30.39,10.0,NW,5.8,-,N/A,,Mostly Cloudy,320,2013-05-01 17:52:00
2:52 PM,79.0,34.0,20,30.38,10.0,Variable,6.9,-,N/A,,Scattered Clouds,0,2013-05-01 18:52:00
3:52 PM,75.0,34.0,22,30.38,10.0,SSE,4.6,-,N/A,,Mostly Cloudy,160,2013-05-01 19:52:00
4:52 PM,75.0,32.0,21,30.38,10.0,SSW,5.8,-,N/A,,Overcast,200,2013-05-01 20:52:00
5:52 PM,75.0,33.1,22,30.39,10.0,Calm,Calm,-,N/A,,Overcast,0,2013-05-01 21:52:00
6:52 PM,71.1,30.9,23,30.40,10.0,SSE,10.4,19.6,N/A,,Mostly Cloudy,150,2013-05-01 22:52:00
7:52 PM,64.9,33.1,31,30.41,10.0,SSE,5.8,-,N/A,,Clear,150,2013-05-01 23:52:00
8:52 PM,55.0,37.0,51,30.43,10.0,Calm,Calm,-,N/A,,Clear,0,2013-05-02 00:52:00
9:52 PM,46.9,37.0,68,30.44,10.0,Calm,Calm,-,N/A,,Clear,0,2013-05-02 01:52:00
10:52 PM,44.1,37.0,76,30.44,10.0,Calm,Calm,-,N/A,,Clear,0,2013-05-02 02:52:00
11:52 PM,39.9,35.1,83,30.44,10.0,Calm,Calm,-,N/A,,Clear,0,2013-05-02 03:52:00